K9JWM Weather Reports


Display with metric or nautical units.
time (UTC)temp
F
wind
direction
speed
MPH
gust
MPH
rain 1hr
in
rain 24hr
in
rain mn
in
humidity
%
barometer
mb
20260503025004 52 222 3.0 8.0 0.00 0.00 0.00 52 1009.8
20260503024709 52 213 3.0 3.0 0.00 0.00 0.00 51 1009.7
20260503024004 52 195 3.0 6.0 0.00 0.00 0.00 49 1009.7
20260503023208 53 192 3.0 3.0 0.00 0.00 0.00 49 1009.8
20260503023004 53 194 2.0 6.0 0.00 0.00 0.00 50 1009.9
20260503022003 53 198 2.0 5.0 0.00 0.00 0.00 48 1010.0
20260503021708 53 195 1.0 3.0 0.00 0.00 0.00 47 1010.0
20260503021004 54 195 2.0 3.0 0.00 0.00 0.00 47 1010.0
20260503020208 54 202 1.0 3.0 0.00 0.00 0.00 47 1010.1
20260503020004 54 202 1.0 5.0 0.00 0.00 0.00 47 1010.1
20260503015003 54 202 2.0 5.0 0.00 0.00 0.00 46 1010.1
20260503014709 55 208 1.0 3.0 0.00 0.00 0.00 46 1010.1
20260503014004 55 206 2.0 7.0 0.00 0.00 0.00 45 1010.1
20260503013208 55 211 2.0 3.0 0.00 0.00 0.00 45 1010.1
20260503013004 55 204 3.0 6.0 0.00 0.00 0.00 45 1010.1
20260503012003 55 227 3.0 6.0 0.00 0.00 0.00 46 1010.1
20260503011708 56 205 3.0 6.0 0.00 0.00 0.00 45 1010.2
20260503011004 56 217 3.0 6.0 0.00 0.00 0.00 46 1010.2
20260503010211 56 237 3.0 6.0 0.00 0.00 0.00 47 1010.2
20260503010005 56 230 5.0 8.0 0.00 0.00 0.00 45 1010.2
20260503005006 56 229 5.0 9.0 0.00 0.00 0.00 47 1010.3
20260503004711 56 222 6.0 7.0 0.00 0.00 0.00 44 1010.3
20260503004006 57 231 6.0 12.0 0.00 0.00 0.00 46 1010.4
20260503003211 57 232 7.0 10.0 0.00 0.00 0.00 44 1010.4
20260503003005 57 226 7.0 10.0 0.00 0.00 0.00 46 1010.5
20260503001710 57 229 6.0 6.0 0.00 0.00 0.00 49 1010.6
20260503001005 57 226 5.0 9.0 0.00 0.00 0.00 46 1010.7
20260503000211 57 247 7.0 9.0 0.00 0.00 0.00 45 1010.8
20260503000005 57 243 6.0 12.0 0.00 0.00 0.00 45 1010.9
20260502235005 57 241 12.0 16.0 0.00 0.00 0.00 44 1010.9
20260502234710 57 254 9.0 12.0 0.00 0.00 0.00 43 1011.0
20260502233210 57 255 12.0 14.0 0.00 0.00 0.00 42 1011.1
20260502233005 57 244 15.0 22.0 0.00 0.00 0.00 44 1011.2
20260502232006 58 237 12.0 15.0 0.00 0.00 0.00 45 1011.2
20260502231711 58 235 7.0 12.0 0.00 0.00 0.00 44 1011.2
20260502231005 58 231 13.0 20.0 0.00 0.00 0.00 42 1011.2
20260502230211 58 247 16.0 20.0 0.00 0.00 0.00 42 1011.3
20260502230005 58 232 13.0 20.0 0.00 0.00 0.00 39 1011.2
20260502225005 58 242 10.0 18.0 0.00 0.00 0.00 39 1011.4
20260502224711 58 235 12.0 12.0 0.00 0.00 0.00 41 1011.4
20260502224006 58 258 13.0 16.0 0.00 0.00 0.00 40 1011.3
20260502223210 58 243 9.0 14.0 0.00 0.00 0.00 38 1011.5
20260502223006 58 243 12.0 18.0 0.00 0.00 0.00 40 1011.5
20260502221710 58 246 10.0 16.0 0.00 0.00 0.00 36 1011.7
20260502221005 58 222 9.0 16.0 0.00 0.00 0.00 34 1011.9
20260502220211 57 261 8.0 10.0 0.00 0.00 0.00 35 1011.9
20260502220006 57 240 7.0 13.0 0.00 0.00 0.00 36 1011.9
20260502215005 57 264 8.0 13.0 0.00 0.00 0.00 37 1012.0
20260502214711 57 265 2.0 6.0 0.00 0.00 0.00 37 1012.1
20260502214005 57 232 10.0 18.0 0.00 0.00 0.00 36 1012.2
20260502213210 57 230 7.0 9.0 0.00 0.00 0.00 36 1012.1
20260502213005 57 236 10.0 14.0 0.00 0.00 0.00 35 1012.2
20260502211710 58 258 10.0 13.0 0.00 0.00 0.00 36 1012.2
20260502211005 58 262 8.0 15.0 0.00 0.00 0.00 35 1012.2
20260502210210 58 264 9.0 13.0 0.00 0.00 0.00 36 1012.5
20260502210006 58 246 9.0 18.0 0.00 0.00 0.00 36 1012.5
20260502204711 57 225 12.0 13.0 0.00 0.00 0.00 33 1012.7
20260502204005 57 224 11.0 26.0 0.00 0.00 0.00 35 1012.9
20260502203210 57 228 13.0 18.0 0.00 0.00 0.00 37 1012.9
20260502203005 56 228 6.0 17.0 0.00 0.00 0.00 35 1012.9
20260502202006 57 244 13.0 17.0 0.00 0.00 0.00 37 1013.0
20260502201712 57 238 12.0 15.0 0.00 0.00 0.00 37 1013.2
20260502201006 57 259 12.0 20.0 0.00 0.00 0.00 37 1013.0
20260502200211 56 267 8.0 16.0 0.00 0.00 0.00 35 1013.3
20260502195005 56 243 9.0 14.0 0.00 0.00 0.00 36 1013.4
20260502194710 56 247 5.0 6.0 0.00 0.00 0.00 33 1013.6
20260502194005 55 245 7.0 10.0 0.00 0.00 0.00 34 1013.7
20260502193211 55 252 3.0 3.0 0.00 0.00 0.00 33 1013.8
20260502193005 55 252 9.0 20.0 0.00 0.00 0.00 35 1013.8
20260502192005 55 241 10.0 14.0 0.00 0.00 0.00 37 1014.1
20260502191710 55 234 7.0 14.0 0.00 0.00 0.00 31 1014.0
20260502190211 55 252 7.0 12.0 0.00 0.00 0.00 36 1014.3
20260502190005 55 215 3.0 10.0 0.00 0.00 0.00 36 1014.3
20260502185005 55 254 9.0 12.0 0.00 0.00 0.00 34 1014.5
20260502184711 54 270 3.0 7.0 0.00 0.00 0.00 32 1014.5
20260502184005 54 246 9.0 18.0 0.00 0.00 0.00 34 1014.8
20260502183210 54 232 8.0 13.0 0.00 0.00 0.00 39 1014.8
20260502183005 54 238 10.0 17.0 0.00 0.00 0.00 36 1014.9
20260502181710 55 42 2.0 3.0 0.00 0.00 0.00 35 1014.9
20260502181005 54 71 5.0 10.0 0.00 0.00 0.00 32 1015.0
20260502180211 54 7 2.0 6.0 0.00 0.00 0.00 35 1015.2
20260502170210 53 342 3.0 7.0 0.00 0.00 0.00 32 1016.2
20260502164005 52 4 6.0 12.0 0.00 0.00 0.00 38 1016.6
20260502163210 51 246 5.0 9.0 0.00 0.00 0.00 37 1016.6
20260502162004 51 257 5.0 8.0 0.00 0.00 0.00 39 1016.7
20260502161710 51 276 2.0 3.0 0.00 0.00 0.00 37 1016.8
20260502161005 50 257 7.0 18.0 0.00 0.00 0.00 38 1017.0
20260502160209 50 249 8.0 12.0 0.00 0.00 0.00 40 1017.0
20260502152005 48 294 2.0 8.0 0.00 0.00 0.00 42 1017.4
20260502151711 48 221 3.0 6.0 0.00 0.00 0.00 42 1017.6
20260502151005 48 241 1.0 8.0 0.00 0.00 0.00 43 1017.6
20260502150210 47 228 6.0 8.0 0.00 0.00 0.00 46 1017.6
20260502130209 36 227 5.0 5.0 0.00 0.00 0.00 70 1018.5
20260502123211 28 184 0.0 1.0 0.00 0.00 0.00 88 1018.7
20260502123005 28 184 0.0 3.0 0.00 0.00 0.00 88 1018.7
20260502121710 27 93 0.0 0.0 0.00 0.00 0.00 88 1018.8
20260502121005 27 93 0.0 0.0 0.00 0.00 0.00 88 1018.7
20260502120209 27 93 0.0 0.0 0.00 0.00 0.00 88 1018.7
20260502115005 27 93 0.0 0.0 0.00 0.00 0.00 88 1018.7
20260502114710 27 93 0.0 0.0 0.00 0.00 0.00 88 1018.7
20260502114005 26 93 0.0 0.0 0.00 0.00 0.00 88 1018.7
20260502113210 26 93 0.0 0.0 0.00 0.00 0.00 88 1018.7
20260502113005 26 93 0.0 0.0 0.00 0.00 0.00 88 1018.6
20260502112005 26 93 0.0 0.0 0.00 0.00 0.00 88 1018.6
20260502111711 26 93 0.0 0.0 0.00 0.00 0.00 88 1018.6
20260502111005 26 93 0.0 0.0 0.00 0.00 0.00 88 1018.6
20260502110210 26 93 0.0 0.0 0.00 0.00 0.00 88 1018.6
20260502110004 26 93 0.0 0.0 0.00 0.00 0.00 88 1018.6
20260502105005 26 93 0.0 0.0 0.00 0.00 0.00 88 1018.7
20260502104710 26 93 0.0 0.0 0.00 0.00 0.00 87 1018.7
20260502103210 27 93 0.0 0.0 0.00 0.00 0.00 87 1018.7
20260502102005 27 93 0.0 0.0 0.00 0.00 0.00 88 1018.7
20260502101710 27 93 0.0 0.0 0.00 0.00 0.00 87 1018.7
20260502101005 27 93 0.0 0.0 0.00 0.00 0.00 88 1018.8
20260502091005 28 93 0.0 0.0 0.00 0.00 0.00 89 1018.8
20260502071005 29 93 0.0 0.0 0.00 0.00 0.00 88 1019.1
20260502070210 29 93 0.0 0.0 0.00 0.00 0.00 88 1019.2
20260502064709 30 93 0.0 0.0 0.00 0.00 0.00 87 1019.4
20260502064005 30 93 0.0 0.0 0.00 0.00 0.00 87 1019.3
20260502063209 30 93 0.0 0.0 0.00 0.00 0.00 86 1019.4
20260502063005 30 93 0.0 0.0 0.00 0.00 0.00 86 1019.4
20260502061709 30 93 0.0 0.0 0.00 0.00 0.00 85 1019.4
20260502061004 30 93 0.0 0.0 0.00 0.00 0.00 85 1019.3
20260502060209 30 93 0.0 0.0 0.00 0.00 0.00 85 1019.4
20260502054710 31 93 0.0 0.0 0.00 0.00 0.00 83 1019.3
20260502054004 31 93 0.0 0.0 0.00 0.00 0.00 83 1019.3
20260502053211 31 93 0.0 0.0 0.00 0.00 0.00 82 1019.2
20260502053004 31 93 0.0 0.0 0.00 0.00 0.00 81 1019.2
20260502051711 31 93 0.0 0.0 0.00 0.00 0.00 79 1019.4
20260502051004 31 93 0.0 0.0 0.00 0.00 0.00 79 1019.3
20260502050209 32 93 0.0 0.0 0.00 0.00 0.00 78 1019.5
20260502050004 32 93 0.0 0.0 0.00 0.00 0.00 78 1019.5
20260502045004 32 93 0.0 0.0 0.00 0.00 0.00 77 1019.5
20260502044709 32 93 0.0 0.0 0.00 0.00 0.00 77 1019.5
20260502044005 32 93 0.0 0.0 0.00 0.00 0.00 77 1019.5
20260502043210 33 93 0.0 0.0 0.00 0.00 0.00 76 1019.5
20260502043005 33 93 0.0 0.0 0.00 0.00 0.00 76 1019.5
20260502041711 33 93 0.0 0.0 0.00 0.00 0.00 74 1019.6
20260502041005 33 93 0.0 2.0 0.00 0.00 0.00 72 1019.6
20260502040209 34 93 0.0 2.0 0.00 0.00 0.00 69 1019.6
20260502035005 34 92 0.0 0.0 0.00 0.00 0.00 67 1019.5
20260502034710 34 92 0.0 0.0 0.00 0.00 0.00 65 1019.5
20260502034004 35 92 0.0 0.0 0.00 0.00 0.00 64 1019.5
20260502033209 35 92 0.0 0.0 0.00 0.00 0.00 63 1019.4
20260502033004 35 92 0.0 0.0 0.00 0.00 0.00 63 1019.5
20260502032005 36 92 0.0 0.0 0.00 0.00 0.00 62 1019.5
20260502031710 36 92 0.0 0.0 0.00 0.00 0.00 62 1019.5
20260502031004 36 92 0.0 0.0 0.00 0.00 0.00 62 1019.5
20260502030210 37 92 0.0 0.0 0.00 0.00 0.00 61 1019.4
20260502030004 37 92 0.0 0.0 0.00 0.00 0.00 62 1019.4